Regional Weather Roundup
Issued by NWS

Home | Current Version | Previous Version | Text Only | Print | Product List | Glossary On
Versions: 1 2 3 4 5 6 7 8 9 10 11 12 13 14 15 16 17 18 19 20 21 22 23 24 25 26 27 28 29 30 31 32 33 34 35 36 37 38 39 40 41 42 43 44 45 46 47 48 49 50
041
ASUS43 KOAX 262110
RWRNE

WEATHER ROUNDUP FOR NEBRASKA
NATIONAL WEATHER SERVICE OMAHA NE
400 PM CDT FRI MAY 26 2017

NOTES: SATELLITE DATA IS BEING USED TO AUGMENT CLOUD COVER ABOVE
       12000 FEET.
       "FAIR" INDICATES FEW OR NO CLOUDS BELOW 12,000 FEET WITH NO
       SIGNIFICANT WEATHER AND/OR OBSTRUCTIONS TO VISIBILITY.

  * THESE STATIONS DO NOT REPORT WEATHER SUCH AS RAIN...SNOW OR FOG.

NEZ001>004-019>022-054>056-262200-
NEBRASKA PANHANDLE

CITY           SKY/WX    TMP DP  RH WIND       PRES   REMARKS
SCOTTSBLUFF    MOSUNNY   64  40  41 E8        29.88F
ALLIANCE       MOSUNNY   64  42  44 CALM      29.89S
CHADRON        CLOUDY    66  42  41 N8        29.88F
GORDON         MOCLDY    65  37  34 NE5       29.89F
KIMBALL        MOSUNNY   66  44  44 SE15G24   29.90S
SIDNEY         MOSUNNY   67  47  48 SE15      29.89F
$$

NEZ057>060-069>072-079>082-262200-
SOUTHWEST NEBRASKA

CITY           SKY/WX    TMP DP  RH WIND       PRES   REMARKS
NORTH PLATTE   SUNNY     73  46  38 S7        29.88F
IMPERIAL       SUNNY     71  46  40 SE8G16    29.88F
LEXINGTON      SUNNY     73  49  43 NE3       29.88S
MCCOOK         SUNNY     76  49  38 VRB6      29.87F
OGALLALA       SUNNY     71  43  36 E7        29.88F
$$

NEZ005>010-023>029-035>040-094-262200-
NORTH CENTRAL NEBRASKA

CITY           SKY/WX    TMP DP  RH WIND       PRES   REMARKS
VALENTINE      SUNNY     71  37  28 MISG      29.88F
AINSWORTH      SUNNY     68  43  40 N9        29.90S
BROKEN BOW     SUNNY     72  43  35 CALM      29.88F
O`NEILL        SUNNY     70  40  33 N12G18    29.88F
ORD            SUNNY     73  44  35 N10       29.86S
THEDFORD       SUNNY     71  42  35 CALM      29.90F
$$

NEZ041-046>049-061>064-073>077-083>087-262200-
SOUTH CENTRAL NEBRASKA

CITY           SKY/WX    TMP DP  RH WIND       PRES   REMARKS
GRAND ISLAND   SUNNY     77  48  35 NW7       29.86S
AURORA         SUNNY     77  44  29 NW7       29.85S
HASTINGS       SUNNY     77  47  34 NE7       29.86F
HEBRON         SUNNY     81  46  29 N10       29.82S
HOLDREGE       SUNNY     73  44  35 CALM      29.87S
KEARNEY *      SUNNY     75  46  35 N5        29.87F
YORK           SUNNY     75  46  35 N7        29.84S
$$

NEZ011>018-030>034-042>045-262200-
NORTHEAST NEBRASKA

CITY           SKY/WX    TMP DP  RH WIND       PRES   REMARKS
NORFOLK        SUNNY     76  45  33 NW10      29.83S
ALBION         SUNNY     75  44  33 N9        29.86S
BLAIR          SUNNY     76  53  44 N8        29.82R
FREMONT        MOSUNNY   80  48  32 N9G20     29.82S
TEKAMAH        MOSUNNY   79  48  33 N8        29.80S
WAYNE          MOSUNNY   77  46  32 NW12G17   29.83S
$$

NEZ050>053-065>068-078-088>093-262200-
SOUTHEAST NEBRASKA

CITY           SKY/WX    TMP DP  RH WIND       PRES   REMARKS
LINCOLN        SUNNY     80  51  36 NE9       29.82S
OMAHA EPPLEY   MOSUNNY   80  51  36 NW14      29.80R
BEATRICE       SUNNY     81  52  36 N10       29.81S
FALLS CITY     PTSUNNY   85  61  44 NE7       29.76S
NEBRASKA CITY  SUNNY     82  49  32 NE12G20   29.79S
PLATTSMOUTH    SUNNY     80  52  37 N10G16    29.81R
$$

NEZ044-045-051>053-067-262200-
OMAHA AREA

CITY           SKY/WX    TMP DP  RH WIND       PRES   REMARKS
OMAHA EPPLEY   MOSUNNY   80  51  36 NW14      29.80R
BLAIR          SUNNY     76  53  44 N8        29.82R
FREMONT        MOSUNNY   80  48  32 N9G20     29.82S
MILLARD        SUNNY     79  53  40 N8        29.81S
OFFUTT AFB     SUNNY     78  53  41 N9G18     29.79S
PLATTSMOUTH    SUNNY     80  52  37 N10G16    29.81R
WAHOO          FAIR      80  44  28 N9G18     29.81F
$$




USA.gov is the U.S. government's official web portal to all federal, state and local government web resources and services.